Location: Camp Crooked Creek
(37.9149°N, 85.6607°W)
Time: 22:23:20
(UTC-04:00)

Daily predictions for brighter satellites

Satellite Brightness Start Highest point End
(mag) Time Altitude Azimuth Time Altitude Azimuth Time Altitude Azimuth
ISS -2.4 20:23:21 10° S 20:25:52 21° SE 20:28:24 10° E
Cosmos 1821 Rocket 4.2 20:19:58 10° S 20:26:21 89° W 20:32:44 10° N
ASTRO F (AKARI) 4.4 20:23:37 10° N 20:26:46 80° WNW 20:30:01 10° SSW
In-Cosmos 22 4.4 20:24:04 10° N 20:29:09 46° ENE 20:34:12 10° SSE
Cosmos 2344 3.8 20:22:06 10° SW 20:29:46 82° WNW 20:38:15 10° NNE
Cosmos 1844 Rocket 4.4 20:26:49 10° SW 20:32:01 37° WNW 20:37:14 10° N
Cosmos 1378 3.4 20:28:42 10° NNW 20:32:27 73° W 20:36:10 10° S
Meteor 1-4 Rocket 3.4 20:30:01 10° SSE 20:32:59 27° E 20:35:58 10° NE
CZ-2D R/B 4.5 20:30:15 10° SE 20:33:22 24° ENE 20:36:32 10° NNE
Cosmos-2242 4.5 20:31:58 10° SE 20:34:39 16° E 20:37:19 10° NE
USA 215 4.3 20:31:31 10° ENE 20:36:24 22° ESE 20:41:15 10° S
Cosmos 1805 3.6 20:33:12 10° SSE 20:36:52 41° E 20:40:33 10° NNE
Resurs 01 Rocket 2.1 20:33:17 10° SE 20:37:25 40° ENE 20:41:34 10° N
RESURS DK-1 2.5 20:33:49 10° NNW 20:37:58 78° WSW 20:42:04 10° SSE
FREGAT/IRIS 3.0 20:37:18 10° S 20:40:20 68° W 20:43:24 10° NNW
FENGYUN 3A 3.6 20:37:17 10° SSE 20:42:40 74° ENE 20:48:04 10° N
Cosmos 1544 3.2 20:40:02 10° S 20:43:32 50° E 20:47:06 10° NNE
Cosmos 1605 Rocket 4.0 20:38:20 10° S 20:44:31 69° E 20:50:51 10° NNE
Lacrosse 5 3.2 20:39:47 10° WSW 20:44:34 41° NW 20:49:22 10° NNE
Cosmos 1833 Rocket 3.5 20:40:39 10° N 20:45:37 31° ENE 20:50:10 12° ESE
Spot 2 Rocket 3.6 20:45:17 10° SSE 20:50:16 56° ENE 20:55:16 10° N
Cosmos 2278 Rocket 2.8 20:46:08 10° SW 20:51:45 62° WNW 20:57:23 10° NNE
Cosmos 1867 3.5 20:47:26 10° SSW 20:52:49 67° ESE 20:58:15 10° NE
Cosmos 1470 3.9 20:50:45 10° SE 20:53:59 24° E 20:57:13 10° NE
BREEZE-M DEB (TANK) 2.9 20:54:50 10° SSW 20:57:38 47° SE 21:05:08 10° ENE
Cosmos 1733 4.3 20:54:31 10° SE 20:57:41 25° E 21:00:53 10° NE
ATLAS 5 CENTAUR R/B 2.0 20:54:09 10° S 20:58:34 46° ESE 21:03:19 10° NE
Cosmos 2123 Rocket 4.2 20:54:38 10° N 21:00:57 80° W 21:07:12 10° S
SJ-6B 4.0 20:57:49 10° S 21:01:22 43° W 21:04:58 10° NNW
Timation 1 Rocket 4.4 20:56:55 10° SSW 21:02:56 89° WNW 21:08:59 10° NNE
Cosmos 1340 Rocket 4.0 21:03:11 10° NNE 21:06:28 24° ENE 21:07:16 22° E
Envisat 3.8 21:05:45 19° ESE 21:08:30 30° ENE 21:12:54 10° N
Cosmos 2297 3.7 21:03:05 10° SSW 21:08:47 83° ESE 21:14:33 10° NNE
H-2A R/B 2.9 21:06:10 10° S 21:10:01 79° WSW 21:13:59 10° NNW
Resurs 1-3 3.6 21:10:53 10° SSE 21:15:16 88° W 21:19:41 10° NNW
Cosmos 1125 Rocket 3.7 21:12:54 10° SSW 21:18:05 75° WNW 21:23:19 10° NNE
Cosmos 1408 Rocket 3.5 21:17:23 10° N 21:21:51 63° E 21:25:11 17° SSE
Cosmos 1048 Rocket 3.8 21:17:56 10° NNW 21:23:04 76° ENE 21:26:59 17° SSE
Geosat 3.9 21:18:16 10° NNE 21:23:20 81° ESE 21:28:21 10° SSW
ERS-1 Rocket 4.2 21:23:19 23° ENE 21:23:49 23° ENE 21:27:43 10° NNE
Cosmos 2082 Rocket 2.1 21:18:11 10° NNW 21:23:52 72° ENE 21:27:52 20° SSE
CZ-3 Stage 3 3.9 20:35:31 10° WSW 21:24:02 65° S 21:29:16 25° ESE
SeaSat 1 3.1 21:19:39 10° S 21:24:28 54° WSW 21:29:19 10° NW
CZ-2C R/B 4.0 21:24:02 10° NW 21:25:21 18° W 21:26:47 10° SW
Cosmos 2061 Rocket 4.2 21:19:18 10° SSE 21:25:26 52° E 21:31:39 10° NNE
Cosmos 1758 4.3 21:24:43 10° SSW 21:28:33 48° W 21:32:26 10° N
ALOS 4.0 21:25:30 10° SSW 21:29:41 33° W 21:33:54 10° NNW
Timation 2 Rocket 3.9 21:26:05 10° NNW 21:32:21 69° ENE 21:35:50 27° SE
Cosmos 1842 Rocket 4.5 21:34:36 30° ENE 21:34:36 30° ENE 21:37:37 10° NNE
Cosmos 1953 3.6 21:31:49 10° SSW 21:35:42 44° W 21:39:36 10° N
GPS 2-05 Rocket1 3.0 21:32:34 10° WSW 21:36:04 57° S 21:36:15 56° SSE
Cosmos 1271 Rocket 2.7 21:32:11 10° S 21:36:11 86° E 21:40:14 10° N
Cosmos 1459 Rocket 3.9 21:30:01 10° S 21:36:14 70° E 21:42:23 10° NNE
Helios 1B rocket 2.5 21:35:07 10° N 21:39:16 80° WNW 21:43:21 10° SSW
SAR-Lupe-4 3.9 21:41:13 30° S 21:42:49 64° WSW 21:46:24 10° NNW
Cosmos 2173 Rocket 3.9 21:37:07 10° S 21:43:15 78° E 21:49:31 10° N
Cosmos 1939 Rocket 3.0 21:44:14 55° E 21:44:22 55° ENE 21:48:26 10° N
OAO 2 Rocket 4.2 21:40:57 10° SW 21:45:21 32° SSE 21:45:21 32° SSE
Spot 1 4.5 21:43:00 19° S 21:46:21 72° WSW 21:51:16 10° NNW
Abrixas 3.9 21:44:51 10° WNW 21:46:58 33° WSW 21:46:58 33° WSW
Meteor 1-29 3.1 21:44:04 10° N 21:47:32 73° WNW 21:49:25 25° SSW
Cosmos 1674 3.3 21:46:00 10° NNW 21:49:43 55° W 21:51:29 28° SSW
CZ-4B DEB 3.5 21:52:56 49° NW 21:52:56 49° NW 21:55:22 10° NNW
Helios 1A 3.6 21:53:10 24° SSW 21:55:26 53° W 21:59:33 10° NNW
COSMOS 2487 3.8 21:52:37 10° NNW 21:55:58 38° WSW 21:56:56 31° SW
Lacrosse 5 rocket 1.7 21:55:06 10° NW 21:58:14 47° N 21:58:14 47° N
Meteor 2-17 Rocket 4.3 21:53:29 10° S 21:59:36 75° E 22:05:44 10° N
Cosmos 2251 Rocket 3.8 21:56:17 10° N 22:01:24 50° ENE 22:01:24 50° ENE
ISS -2.3 21:59:09 10° WSW 22:02:04 35° NW 22:02:04 35° NW
GP-B 4.5 22:02:19 10° SSW 22:06:26 38° W 22:10:36 10° NNW
CZ-3B DEB 4.4 22:03:45 10° W 22:09:55 21° NW 22:13:40 10° NNE
Resurs 01 Rocket 4.4 22:11:17 10° SW 22:14:03 16° W 22:16:49 10° NW
Cosmos 2016 Rocket 4.0 22:09:00 10° S 22:15:14 82° W 22:21:26 10° N
USA 215 3.2 22:13:17 10° NE 22:19:50 86° NW 22:26:23 10° SW
Cosmos 1725 Rocket 3.8 22:23:25 70° SSE 22:24:10 81° E 22:30:23 10° N
Cosmos 1833 Rocket 4.1 22:24:30 10° NW 22:29:30 34° WSW 22:31:55 24° SSW
SPOT 5 4.0 22:33:36 38° NNE 22:33:36 38° NNE 22:37:04 10° N
Cosmos 494 Rocket 4.4 22:33:59 10° NNW 22:38:11 57° NW 22:38:11 57° NW
ATLAS 5 CENTAUR R/B 4.1 22:39:46 10° W 22:43:30 22° NW 22:47:30 10° N
Tsikada Rocket 4.0 22:39:52 10° N 22:45:44 78° NW 22:45:44 78° NW
USA 267 4.1 22:50:51 36° NNE 22:50:59 36° NNE 22:56:49 10° NNW
H-2A R/B 3.9 23:02:14 24° N 23:02:14 24° N 23:04:24 10° N
ERS-1 Rocket 4.4 23:03:18 35° WNW 23:03:18 35° WNW 23:07:01 10° NNW
